Weather History for Athens, OH

Change the Weather History Date:

Monday, April 28, 2014

  Actual Average (KPKB) Record (KPKB)
Temperature  
Mean Temperature 58 °F 58 °F  
Max Temperature 68 °F 70 °F 91 °F (1986)
Min Temperature 48 °F 46 °F 27 °F (1934)
Degree Days  
Heating Degree Days 7 8  
Month to date heating degree days 330  
Since 1 July heating degree days 4791  
Cooling Degree Days 0 1  
Month to date cooling degree days 18  
Year to date cooling degree days 21  
Growing Degree Days 8 (Base 50)    
Moisture  
Dew Point 48 °F    
Average Humidity 71    
Maximum Humidity 96    
Minimum Humidity 41    
Precipitation  
Precipitation 0.00 in 0.11 in 1.43 in (2002)
Month to date precipitation 3.05  
Year to date precipitation 12.43  
Snow  
Snow 0.00 in - - ()
Month to date snowfall  
Since 1 July snowfall  
Since 1 September snowfall  
Snow Depth -    
Sea Level Pressure  
Sea Level Pressure 29.82 in    
Wind  
Wind Speed 4 mph (East)    
Max Wind Speed 8 mph    
Max Gust Speed -    
Visibility 9 miles    
Events Rain , Thunderstorm    
T = Trace of Precipitation, MM = Missing Value Source: NWS Daily Summary

Daily Weather History Graph

Daily Weather History Graph

Search for Another Location

Airport:

Trip Planner

Search our weather history database for the weather conditions in past years. The results will help you decide how hot, cold, wet, or windy it might be!

Date:

Astronomy

Apr. 28, 2014 Rise Set
Actual Time 6:34 AM EDT 8:19 PM EDT
Civil Twilight 6:05 AM EDT 8:47 PM EDT
Nautical Twilight 5:30 AM EDT 9:22 PM EDT
Astronomical Twilight 4:53 AM EDT 9:59 PM EDT
Moon 6:11 AM EDT 7:56 PM EDT
Length of Visible Light 14h 42m
Length of Day
13h 44m
Waning Crescent, 0% of the Moon is Illuminated
Apr 28
Waning Crescent
Apr 29
New
May 6
First Quarter
May 14
Full
May 21
Last Quarter

Hourly Weather History & Observations

Time (EDT) Temp. Dew Point Humidity Pressure Visibility Wind Dir Wind Speed Gust Speed Precip Events Conditions
12:15 AM 57.6 °F 33.8 °F 41% 29.93 in 10.0 mi ENE 6.9 mph - N/A   Clear
12:35 AM 57.0 °F 34.2 °F 42% 29.92 in 10.0 mi ENE 8.1 mph - N/A   Clear
12:55 AM 56.5 °F 34.5 °F 44% 29.91 in 10.0 mi NE 6.9 mph - N/A   Clear
1:15 AM 56.3 °F 34.7 °F 44% 29.91 in 10.0 mi NE 8.1 mph - N/A   Clear
1:35 AM 55.2 °F 35.6 °F 48% 29.90 in 10.0 mi NE 6.9 mph - N/A   Clear
1:55 AM 55.4 °F 35.1 °F 46% 29.91 in 10.0 mi NE 6.9 mph - N/A   Scattered Clouds
2:15 AM 56.5 °F 34.2 °F 43% 29.91 in 10.0 mi NNE 8.1 mph - N/A   Mostly Cloudy
2:35 AM 56.3 °F 34.9 °F 45% 29.90 in 10.0 mi NE 6.9 mph - N/A   Overcast
2:55 AM 55.6 °F 35.4 °F 47% 29.89 in 10.0 mi NE 4.6 mph - N/A   Overcast
3:15 AM 54.5 °F 35.4 °F 49% 29.87 in 10.0 mi NE 5.8 mph - N/A   Mostly Cloudy
3:35 AM 54.5 °F 34.0 °F 46% 29.88 in 10.0 mi ENE 3.5 mph - N/A   Scattered Clouds
3:55 AM 54.1 °F 33.8 °F 46% 29.88 in 10.0 mi Calm Calm - N/A   Clear
4:15 AM 48.7 °F 36.5 °F 63% 29.88 in 10.0 mi Calm Calm - N/A   Clear
4:35 AM 50.2 °F 36.5 °F 59% 29.88 in 10.0 mi Calm Calm - N/A   Clear
4:55 AM 49.8 °F 39.2 °F 67% 29.87 in 10.0 mi Calm Calm - N/A   Scattered Clouds
5:15 AM 52.5 °F 36.1 °F 54% 29.85 in 10.0 mi NE 4.6 mph - N/A   Scattered Clouds
5:35 AM 52.7 °F 36.0 °F 53% 29.85 in 10.0 mi ENE 5.8 mph - N/A   Clear
6:15 AM 52.7 °F 35.6 °F 52% 29.85 in 10.0 mi NE 3.5 mph - N/A   Scattered Clouds
6:35 AM 52.9 °F 36.0 °F 53% 29.86 in 10.0 mi ENE 4.6 mph - N/A   Overcast
6:55 AM 53.8 °F 34.2 °F 47% 29.86 in 10.0 mi Calm Calm - N/A   Overcast
7:15 AM 53.6 °F 36.9 °F 53% 29.86 in 10.0 mi Calm Calm - N/A   Overcast
7:35 AM 52.9 °F 38.7 °F 58% 29.85 in 10.0 mi NE 3.5 mph - N/A   Overcast
7:55 AM 53.4 °F 37.6 °F 55% 29.84 in 10.0 mi ENE 5.8 mph - N/A   Overcast
8:15 AM 53.8 °F 37.2 °F 54% 29.84 in 10.0 mi ENE 4.6 mph - N/A   Overcast
8:35 AM 54.5 °F 37.2 °F 52% 29.82 in 10.0 mi ENE 5.8 mph - N/A   Mostly Cloudy
8:55 AM 54.9 °F 37.8 °F 53% 29.82 in 10.0 mi ENE 4.6 mph - N/A   Scattered Clouds
9:15 AM 54.5 °F 40.5 °F 59% 29.80 in 10.0 mi NE 4.6 mph - N/A Rain Light Rain
9:35 AM 54.9 °F 41.9 °F 62% 29.81 in 10.0 mi Calm Calm - N/A   Overcast
9:55 AM 55.4 °F 41.4 °F 59% 29.82 in 10.0 mi Calm Calm - N/A   Overcast
10:15 AM 55.4 °F 41.5 °F 60% 29.84 in 10.0 mi Calm Calm - N/A   Overcast
10:35 AM 54.5 °F 45.1 °F 71% 29.84 in 10.0 mi East 3.5 mph - N/A Rain Light Rain
10:55 AM 52.7 °F 46.2 °F 79% 29.84 in 4.0 mi Calm Calm - N/A Rain , Thunderstorm Rain
11:15 AM 51.4 °F 46.8 °F 84% 29.84 in 5.0 mi Calm Calm - N/A Rain , Thunderstorm Thunderstorms and Rain
11:35 AM 51.4 °F 48.0 °F 88% 29.86 in 2.0 mi Calm Calm - N/A Rain Rain
12:15 PM 52.7 °F 50.7 °F 93% 29.82 in 10.0 mi East 5.8 mph - N/A Rain Light Rain
12:55 PM 57.9 °F 55.6 °F 92% 29.79 in 10.0 mi SE 5.8 mph - N/A   Mostly Cloudy
1:15 PM 59.2 °F 56.5 °F 91% 29.78 in 10.0 mi SE 4.6 mph - N/A   Overcast
1:35 PM 59.4 °F 56.5 °F 90% 29.78 in 10.0 mi SE 6.9 mph - N/A   Overcast
2:15 PM 60.3 °F 57.2 °F 90% 29.80 in 10.0 mi SE 4.6 mph - N/A   Overcast
2:35 PM 60.4 °F 57.4 °F 90% 29.80 in 10.0 mi Calm Calm - N/A   Overcast
2:55 PM 61.0 °F 57.9 °F 90% 29.80 in 10.0 mi SSE 3.5 mph - N/A   Overcast
3:15 PM 62.6 °F 58.6 °F 87% 29.79 in 10.0 mi Calm Calm - N/A   Overcast
3:35 PM 64.2 °F 59.7 °F 85% 29.78 in 10.0 mi South 5.8 mph - N/A   Overcast
3:55 PM 65.8 °F 60.1 °F 82% 29.77 in 10.0 mi South 4.6 mph - N/A   Overcast
4:15 PM 66.6 °F 60.3 °F 80% 29.76 in 10.0 mi South 8.1 mph - N/A   Scattered Clouds
4:35 PM 67.1 °F 60.4 °F 79% 29.76 in 10.0 mi SSE 5.8 mph - N/A   Scattered Clouds
4:55 PM 66.7 °F 60.1 °F 79% 29.78 in 10.0 mi SSW 5.8 mph - N/A   Scattered Clouds
5:15 PM 67.1 °F 60.4 °F 79% 29.78 in 10.0 mi South 4.6 mph - N/A   Mostly Cloudy
5:35 PM 67.6 °F 60.4 °F 78% 29.77 in 10.0 mi SSE 3.5 mph - N/A   Scattered Clouds
5:55 PM 68.0 °F 60.4 °F 77% 29.77 in 10.0 mi SSE 4.6 mph - N/A   Clear
6:15 PM 67.5 °F 60.6 °F 79% 29.76 in 10.0 mi Calm Calm - N/A   Clear
6:35 PM 67.3 °F 60.6 °F 79% 29.74 in 10.0 mi North - - N/A   Clear
6:55 PM 66.6 °F 60.8 °F 82% 29.73 in 10.0 mi ENE 4.6 mph - N/A   Clear
7:15 PM 66.2 °F 61.0 °F 83% 29.75 in 10.0 mi Calm Calm - N/A   Scattered Clouds
7:35 PM 66.0 °F 60.8 °F 83% 29.76 in 10.0 mi Calm Calm - N/A   Scattered Clouds
7:55 PM 65.3 °F 60.8 °F 85% 29.77 in 10.0 mi Calm Calm - N/A   Scattered Clouds
8:15 PM 63.5 °F 60.3 °F 89% 29.74 in 10.0 mi ENE 5.8 mph - N/A Rain Light Rain
8:35 PM 64.6 °F 61.0 °F 88% 29.75 in 10.0 mi Calm Calm - N/A   Scattered Clouds
8:55 PM 63.9 °F 60.8 °F 90% 29.76 in 10.0 mi Calm Calm - N/A   Scattered Clouds
9:15 PM 62.8 °F 60.1 °F 91% 29.78 in 10.0 mi Calm Calm - N/A   Mostly Cloudy
9:35 PM 62.1 °F 60.1 °F 93% 29.78 in 10.0 mi Calm Calm - N/A   Scattered Clouds
9:55 PM 61.3 °F 59.5 °F 94% 29.76 in 7.0 mi Calm Calm - N/A   Clear
10:15 PM 61.7 °F 60.1 °F 94% 29.76 in 7.0 mi Calm Calm - N/A   Scattered Clouds
10:55 PM 59.9 °F 58.3 °F 94% 29.78 in 4.0 mi Calm Calm - N/A   Overcast
11:15 PM 60.6 °F 59.4 °F 96% 29.77 in 7.0 mi Calm Calm - N/A   Overcast
11:35 PM 59.5 °F 58.3 °F 96% 29.75 in 1.5 mi NE 4.6 mph - N/A   Light Drizzle
11:55 PM 60.4 °F 59.2 °F 96% 29.75 in 4.0 mi ENE 3.5 mph - N/A   Scattered Clouds